Location: Montreal
(45.5087°N, 73.5540°W)
Time: 22:58:52
(UTC-04:00)

Tiangong 2 - Visible Passes

Search period start: 20 August 2017 00:00
Search period end: 30 August 2017 00:00
Orbit: 390 x 395 km, 42.8° (Epoch: 20 August)

Date Brightness Start Highest point End Pass type
(mag) Time Alt. Az. Time Alt. Az. Time Alt. Az.
20 Aug 2.4 05:25:05 10° SW 05:27:58 30° SSE 05:30:51 10° E visible
21 Aug 2.8 04:30:19 20° S 04:31:04 22° SSE 04:33:40 10° ESE visible
22 Aug 4.0 03:35:53 11° ESE 03:35:53 11° ESE 03:36:13 10° ESE visible
22 Aug 1.8 05:08:15 15° SW 05:10:39 41° SSE 05:13:43 10° E visible
23 Aug 2.2 04:13:48 32° SSE 04:13:48 32° SSE 04:16:37 10° E visible
24 Aug 4.2 03:19:21 10° ESE 03:19:21 10° ESE 03:19:26 10° ESE visible
24 Aug 1.5 04:51:43 24° WSW 04:53:20 50° S 04:56:29 10° E visible
25 Aug 2.4 03:57:17 32° ESE 03:57:17 32° ESE 03:59:25 10° E visible
25 Aug 1.5 05:29:54 10° W 05:33:01 48° S 05:36:09 10° ESE visible
26 Aug 1.3 04:35:16 41° SW 04:35:59 52° S 04:39:08 10° ESE visible
27 Aug 3.4 03:40:56 20° ESE 03:40:56 20° ESE 03:42:05 10° E visible
27 Aug 1.8 05:13:19 15° WSW 05:15:38 38° SSW 05:18:39 10° ESE visible
28 Aug 1.7 04:19:05 42° SSE 04:19:05 42° SSE 04:21:43 10° ESE visible
29 Aug 2.2 04:57:22 24° SW 04:58:09 27° SSW 05:00:57 10° SE visible
